Location: Unspecified
(49.2170°N, 0.0000°E)
Time: 06:22:00
(UTC+00:00)

Vanguard 3 - Pass Details

Date: 22 January 2021
Orbit: 508 x 3262 km, 33.4° (Epoch: 08 March)

Event Time Altitude Azimuth Distance (km) Brightness Sun altitude
Rises 04:24:45 0° 224° (SW) 3,797 - -32.1°
Reaches altitude 10° 04:27:25 10° 211° (SSW) 3,155 - -31.6°
Exits shadow 04:30:15 21° 192° (SSW) 2,735 9.6 -31.2°
Maximum altitude 04:34:07 28° 156° (SSE) 2,768 9.9 -30.5°
Drops below altitude 10° 04:44:24 10° 106° (ESE) 4,980 12.0 -28.9°
Sets 04:49:58 0° 97° (E) 6,443 13.0 -28.0°
